Regional Weather Roundup
Issued by NWS

Home | Current Version | Previous Version | Graphics & Text | Print | Product List | Glossary On
Versions: 1 2 3 4 5 6 7 8 9 10 11 12 13 14 15 16 17 18 19 20 21 22 23 24 25 26 27
000
ASUS45 KCYS 231110
RWRWY

WYOMING REGIONAL WEATHER ROUNDUP
NATIONAL WEATHER SERVICE CHEYENNE WY
500 AM MDT TUE AUG 23 2016

NOTE:  "FAIR" INDICATES FEW OR NO CLOUDS BELOW 12,000 FEET
WITH NO SIGNIFICANT WEATHER AND/OR OBSTRUCTIONS TO VISIBILITY.

WYZ001-231200-
YELLOWSTONE NATIONAL PARK

CITY           SKY/WX    TMP DP  RH WIND       PRES   REMARKS
LK YELLOWSTONE   N/A     45  14  28 NW6       30.17R
W YELLOWSTONE  NOT AVBL

$$
WYZ002>013-054>058-071-098>099-231200-
NORTHERN WYOMING

CITY           SKY/WX    TMP DP  RH WIND       PRES   REMARKS
JACKSON        FAIR      52  12  20 SW10      30.11R
CODY           FAIR      57  25  28 NW7       30.00R
GREYBULL       FAIR      56  29  35 SE6       29.89R
WORLAND        FAIR      60  28  29 SW7       29.92R
SHERIDAN       FAIR      56  30  37 NW10      29.95R
BUFFALO        FAIR      63  19  18 NW14      29.98R
GILLETTE       FAIR      60  29  30 NW15      29.91R
HULETT         FAIR      61  32  33 NW9       29.89R
NEWCASTLE      FAIR      57  32  38 N12       29.82R

$$
WYZ014>020-022>026-101>103-231200-
CENTRAL WYOMING

CITY           SKY/WX    TMP DP  RH WIND       PRES   REMARKS
BIG PINEY      FAIR      43  10  26 CALM      30.17R
PINEDALE       FAIR      32  23  69 CALM      30.18S
DUBOIS         FAIR      43  10  26 NW3       30.10S
LANDER         FAIR      59  14  17 SW7       30.00S
RIVERTON       FAIR      56  11  16 W14       30.00S
CASPER         FAIR      56  22  26 N8        30.00R
DOUGLAS        FAIR      64  32  30 NW17      29.94R

$$
WYZ021-027>030-104>119-231200-
SOUTHERN WYOMING

CITY           SKY/WX    TMP DP  RH WIND       PRES   REMARKS
EVANSTON       FAIR      55  21  26 SW6       30.20R
FORT BRIDGER   FAIR      58  14  17 SW8       30.20S
ROCK SPRINGS   FAIR      55  14  19 SW10      30.15R
DIXON          FAIR      47  36  66 CALM      30.19S
RAWLINS        FAIR      56  34  43 SW10      30.12S
SARATOGA       FAIR      46  36  66 E5        30.16S
LARAMIE        FAIR      50  38  63 S10       30.13R
CHEYENNE       FAIR      64  36  35 W15G22    30.01R
TORRINGTON     FAIR      52  48  86 NE6       29.86R
PINE BLUFFS    FAIR      54  37  54 W6        29.94R

$$




USA.gov is the U.S. government's official web portal to all federal, state and local government web resources and services.